Time,TemperatureF,DewpointF,PressureIn,WindDirection,WindDirectionDegrees,WindSpeedMPH,WindSpeedGustMPH,Humidity,HourlyPrecipIn,Conditions,Clouds,dailyrainin,SoftwareType,DateUTC
2013-05-05 00:02:00,67.8,29.7,-100.00,SW,230,14.0,21.0,24,0.00,,,0.00,meteohub,2013-05-05 07:02:00,
2013-05-05 00:07:00,67.8,29.7,-100.00,SSW,207,9.0,21.0,24,0.00,,,0.00,meteohub,2013-05-05 07:07:00,
2013-05-05 00:12:00,67.8,28.6,-100.00,SW,216,16.0,27.0,23,0.00,,,0.00,meteohub,2013-05-05 07:12:00,
2013-05-05 00:17:00,67.8,27.5,-100.00,SW,214,14.0,27.0,22,0.00,,,0.00,meteohub,2013-05-05 07:17:00,
2013-05-05 00:22:00,67.8,27.5,-100.00,SW,232,13.0,23.0,22,0.00,,,0.00,meteohub,2013-05-05 07:22:00,
2013-05-05 00:27:00,67.6,27.5,-100.00,SW,223,11.0,23.0,22,0.00,,,0.00,meteohub,2013-05-05 07:27:00,
2013-05-05 00:32:00,67.6,27.5,-100.00,SSW,205,11.0,22.0,22,0.00,,,0.00,meteohub,2013-05-05 07:32:00,
2013-05-05 00:37:00,67.6,27.5,-100.00,SSW,194,8.0,22.0,22,0.00,,,0.00,meteohub,2013-05-05 07:37:00,
2013-05-05 00:42:00,67.6,27.5,-100.00,South,186,13.0,21.0,22,0.00,,,0.00,meteohub,2013-05-05 07:42:00,
2013-05-05 00:47:00,67.8,26.4,-100.00,SSW,200,10.0,19.0,21,0.00,,,0.00,meteohub,2013-05-05 07:47:00,
2013-05-05 00:52:00,67.5,26.2,-100.00,South,186,11.0,18.0,21,0.00,,,0.00,meteohub,2013-05-05 07:52:00,
2013-05-05 00:57:00,67.5,26.2,-100.00,South,184,15.0,18.0,21,0.00,,,0.00,meteohub,2013-05-05 07:57:00,
2013-05-05 01:02:00,67.5,26.2,-100.00,South,173,13.0,18.0,21,0.00,,,0.00,meteohub,2013-05-05 08:02:00,
2013-05-05 01:07:00,66.9,25.7,-100.00,South,171,17.0,18.0,21,0.00,,,0.00,meteohub,2013-05-05 08:07:00,
2013-05-05 01:12:00,66.7,25.5,-100.00,South,185,16.0,18.0,21,0.00,,,0.00,meteohub,2013-05-05 08:12:00,
2013-05-05 01:17:00,66.7,25.5,-100.00,South,182,12.0,22.0,21,0.00,,,0.00,meteohub,2013-05-05 08:17:00,
2013-05-05 01:22:00,66.6,25.3,-100.00,South,182,19.0,22.0,21,0.00,,,0.00,meteohub,2013-05-05 08:22:00,
2013-05-05 01:27:00,66.0,26.1,-100.00,South,182,9.0,22.0,22,0.00,,,0.00,meteohub,2013-05-05 08:27:00,
2013-05-05 01:32:00,66.0,26.1,-100.00,South,172,18.0,22.0,22,0.00,,,0.00,meteohub,2013-05-05 08:32:00,
2013-05-05 01:37:00,66.0,26.1,-100.00,South,178,9.0,22.0,22,0.00,,,0.00,meteohub,2013-05-05 08:37:00,
2013-05-05 01:42:00,65.8,27.0,-100.00,South,188,9.0,18.0,23,0.00,,,0.00,meteohub,2013-05-05 08:42:00,
2013-05-05 01:47:00,65.8,25.9,-100.00,South,186,8.0,18.0,22,0.00,,,0.00,meteohub,2013-05-05 08:47:00,
2013-05-05 01:52:00,65.5,26.8,-100.00,SSW,200,10.0,16.0,23,0.00,,,0.00,meteohub,2013-05-05 08:52:00,
2013-05-05 01:57:00,65.5,25.7,-100.00,South,191,12.0,15.0,22,0.00,,,0.00,meteohub,2013-05-05 08:57:00,
2013-05-05 02:02:00,65.5,25.7,-100.00,South,178,8.0,18.0,22,0.00,,,0.00,meteohub,2013-05-05 09:02:00,
2013-05-05 02:07:00,65.7,25.7,-100.00,South,177,13.0,18.0,22,0.00,,,0.00,meteohub,2013-05-05 09:07:00,
2013-05-05 02:12:00,65.1,25.3,-100.00,South,171,5.0,18.0,22,0.00,,,0.00,meteohub,2013-05-05 09:12:00,
2013-05-05 02:17:00,64.8,26.1,-100.00,South,185,14.0,15.0,23,0.00,,,0.00,meteohub,2013-05-05 09:17:00,
2013-05-05 02:22:00,65.1,25.3,-100.00,SSW,197,12.0,19.0,22,0.00,,,0.00,meteohub,2013-05-05 09:22:00,
2013-05-05 02:27:00,64.6,25.9,-100.00,South,190,10.0,19.0,23,0.00,,,0.00,meteohub,2013-05-05 09:27:00,
2013-05-05 02:32:00,64.6,25.9,-100.00,SSW,208,10.0,19.0,23,0.00,,,0.00,meteohub,2013-05-05 09:32:00,
2013-05-05 02:37:00,64.4,25.7,-100.00,SSW,210,5.0,19.0,23,0.00,,,0.00,meteohub,2013-05-05 09:37:00,
2013-05-05 02:42:00,64.2,25.7,-100.00,SSW,192,12.0,22.0,23,0.00,,,0.00,meteohub,2013-05-05 09:42:00,
2013-05-05 02:47:00,64.2,24.6,-100.00,SSW,192,11.0,22.0,22,0.00,,,0.00,meteohub,2013-05-05 09:47:00,
2013-05-05 02:52:00,64.2,24.6,-100.00,SSW,206,13.0,22.0,22,0.00,,,0.00,meteohub,2013-05-05 09:52:00,
2013-05-05 02:57:00,64.0,24.4,-100.00,SSW,198,10.0,24.0,22,0.00,,,0.00,meteohub,2013-05-05 09:57:00,
2013-05-05 03:02:00,64.0,24.4,-100.00,South,184,8.0,24.0,22,0.00,,,0.00,meteohub,2013-05-05 10:02:00,
2013-05-05 03:07:00,64.0,24.4,-100.00,SW,214,8.0,24.0,22,0.00,,,0.00,meteohub,2013-05-05 10:07:00,
2013-05-05 03:12:00,64.0,24.4,-100.00,South,172,8.0,15.0,22,0.00,,,0.00,meteohub,2013-05-05 10:12:00,
2013-05-05 03:17:00,63.9,24.3,-100.00,SSW,199,7.0,16.0,22,0.00,,,0.00,meteohub,2013-05-05 10:17:00,
2013-05-05 03:22:00,63.7,25.2,-100.00,SSW,205,9.0,16.0,23,0.00,,,0.00,meteohub,2013-05-05 10:22:00,
2013-05-05 03:27:00,63.7,24.1,-100.00,SW,215,7.0,21.0,22,0.00,,,0.00,meteohub,2013-05-05 10:27:00,
2013-05-05 03:32:00,63.3,23.9,-100.00,SW,225,9.0,21.0,22,0.00,,,0.00,meteohub,2013-05-05 10:32:00,
2013-05-05 03:37:00,63.1,24.8,-100.00,SSW,205,6.0,18.0,23,0.00,,,0.00,meteohub,2013-05-05 10:37:00,
2013-05-05 03:42:00,62.8,24.4,-100.00,SW,216,5.0,18.0,23,0.00,,,0.00,meteohub,2013-05-05 10:42:00,
2013-05-05 03:47:00,63.0,24.6,-100.00,WSW,237,8.0,18.0,23,0.00,,,0.00,meteohub,2013-05-05 10:47:00,
2013-05-05 03:52:00,63.1,24.8,-100.00,SW,236,8.0,14.0,23,0.00,,,0.00,meteohub,2013-05-05 10:52:00,
2013-05-05 03:57:00,62.6,25.3,-100.00,SW,225,13.0,14.0,24,0.00,,,0.00,meteohub,2013-05-05 10:57:00,
2013-05-05 04:02:00,62.1,25.9,-100.00,SSW,209,12.0,16.0,25,0.00,,,0.00,meteohub,2013-05-05 11:02:00,
2013-05-05 04:07:00,61.5,25.3,-100.00,WSW,250,10.0,19.0,25,0.00,,,0.00,meteohub,2013-05-05 11:07:00,
2013-05-05 04:12:00,61.7,25.5,-100.00,SW,226,12.0,19.0,25,0.00,,,0.00,meteohub,2013-05-05 11:12:00,
2013-05-05 04:17:00,61.9,26.6,-100.00,WSW,237,10.0,19.0,26,0.00,,,0.00,meteohub,2013-05-05 11:17:00,
2013-05-05 04:22:00,61.9,26.6,-100.00,SSW,200,13.0,18.0,26,0.00,,,0.00,meteohub,2013-05-05 11:22:00,
2013-05-05 04:27:00,61.7,26.4,-100.00,SW,236,10.0,20.0,26,0.00,,,0.00,meteohub,2013-05-05 11:27:00,
2013-05-05 04:32:00,61.5,26.2,-100.00,SW,216,15.0,25.0,26,0.00,,,0.00,meteohub,2013-05-05 11:32:00,
2013-05-05 04:37:00,61.7,26.4,-100.00,SW,234,15.0,26.0,26,0.00,,,0.00,meteohub,2013-05-05 11:37:00,
2013-05-05 04:42:00,61.5,26.2,-100.00,SW,224,10.0,26.0,26,0.00,,,0.00,meteohub,2013-05-05 11:42:00,
2013-05-05 04:47:00,61.9,25.7,-100.00,SW,221,19.0,26.0,25,0.00,,,0.00,meteohub,2013-05-05 11:47:00,
2013-05-05 04:52:00,62.1,25.9,-100.00,WSW,251,13.0,25.0,25,0.00,,,0.00,meteohub,2013-05-05 11:52:00,
2013-05-05 04:57:00,62.1,25.9,-100.00,West,259,11.0,23.0,25,0.00,,,0.00,meteohub,2013-05-05 11:57:00,
2013-05-05 05:02:00,61.5,25.3,-100.00,SW,234,10.0,21.0,25,0.00,,,0.00,meteohub,2013-05-05 12:02:00,
2013-05-05 05:07:00,61.5,26.2,-100.00,WSW,240,14.0,21.0,26,0.00,,,0.00,meteohub,2013-05-05 12:07:00,
2013-05-05 05:12:00,61.0,26.8,-100.00,SW,231,9.0,21.0,27,0.00,,,0.00,meteohub,2013-05-05 12:12:00,
2013-05-05 05:17:00,61.0,26.8,-100.00,West,266,13.0,21.0,27,0.00,,,0.00,meteohub,2013-05-05 12:17:00,
2013-05-05 05:22:00,60.3,27.0,-100.00,West,259,11.0,21.0,28,0.00,,,0.00,meteohub,2013-05-05 12:22:00,
2013-05-05 05:27:00,59.7,27.3,-100.00,WSW,257,10.0,20.0,29,0.00,,,0.00,meteohub,2013-05-05 12:27:00,
2013-05-05 05:32:00,59.2,27.7,-100.00,West,271,7.0,20.0,30,0.00,,,0.00,meteohub,2013-05-05 12:32:00,
2013-05-05 05:37:00,59.0,28.4,-100.00,WSW,248,10.0,15.0,31,0.00,,,0.00,meteohub,2013-05-05 12:37:00,
2013-05-05 05:42:00,59.0,28.4,-100.00,WSW,250,8.0,15.0,31,0.00,,,0.00,meteohub,2013-05-05 12:42:00,
2013-05-05 05:47:00,59.4,28.8,-100.00,West,260,9.0,14.0,31,0.00,,,0.00,meteohub,2013-05-05 12:47:00,
2013-05-05 05:52:00,59.5,28.9,-100.00,WSW,258,11.0,14.0,31,0.00,,,0.00,meteohub,2013-05-05 12:52:00,
2013-05-05 05:57:00,59.0,28.4,-100.00,West,269,7.0,12.0,31,0.00,,,0.00,meteohub,2013-05-05 12:57:00,
2013-05-05 06:02:00,58.8,28.2,-100.00,WSW,244,5.0,13.0,31,0.00,,,0.00,meteohub,2013-05-05 13:02:00,
2013-05-05 06:07:00,58.5,28.8,-100.00,SW,236,7.0,13.0,32,0.00,,,0.00,meteohub,2013-05-05 13:07:00,
2013-05-05 06:12:00,58.8,28.9,-100.00,WSW,242,3.0,13.0,32,0.00,,,0.00,meteohub,2013-05-05 13:12:00,
2013-05-05 06:17:00,58.8,28.9,-100.00,WSW,242,2.0,9.0,32,0.00,,,0.00,meteohub,2013-05-05 13:17:00,
2013-05-05 06:22:00,59.4,29.5,-100.00,WSW,241,3.0,9.0,32,0.00,,,0.00,meteohub,2013-05-05 13:22:00,
2013-05-05 06:27:00,59.4,28.8,-100.00,SSW,198,5.0,8.0,31,0.00,,,0.00,meteohub,2013-05-05 13:27:00,
2013-05-05 06:32:00,58.6,28.9,-100.00,SSW,201,5.0,8.0,32,0.00,,,0.00,meteohub,2013-05-05 13:32:00,
2013-05-05 06:37:00,58.6,29.7,-100.00,SW,234,7.0,10.0,33,0.00,,,0.00,meteohub,2013-05-05 13:37:00,
2013-05-05 06:42:00,58.8,28.9,-100.00,SW,235,4.0,10.0,32,0.00,,,0.00,meteohub,2013-05-05 13:42:00,
2013-05-05 06:47:00,59.5,29.7,-100.00,SW,223,11.0,13.0,32,0.00,,,0.00,meteohub,2013-05-05 13:47:00,
2013-05-05 06:52:00,60.6,29.8,-100.00,SW,223,3.0,13.0,31,0.00,,,0.00,meteohub,2013-05-05 13:52:00,
2013-05-05 06:57:00,60.8,30.0,-100.00,SW,222,1.0,13.0,31,0.00,,,0.00,meteohub,2013-05-05 13:57:00,
2013-05-05 07:02:00,60.8,30.0,-100.00,WSW,250,4.0,12.0,31,0.00,,,0.00,meteohub,2013-05-05 14:02:00,
2013-05-05 07:07:00,60.6,29.8,-100.00,SW,223,5.0,6.0,31,0.00,,,0.00,meteohub,2013-05-05 14:07:00,
2013-05-05 07:12:00,60.4,30.4,-100.00,SW,234,6.0,9.0,32,0.00,,,0.00,meteohub,2013-05-05 14:12:00,
2013-05-05 07:17:00,61.0,30.2,-100.00,SW,219,4.0,9.0,31,0.00,,,0.00,meteohub,2013-05-05 14:17:00,
2013-05-05 07:22:00,61.3,30.4,-100.00,WSW,237,11.0,11.0,31,0.00,,,0.00,meteohub,2013-05-05 14:22:00,
2013-05-05 07:27:00,61.3,31.3,-100.00,SSW,203,13.0,16.0,32,0.00,,,0.00,meteohub,2013-05-05 14:27:00,
2013-05-05 07:32:00,61.2,31.8,-100.00,South,180,16.0,19.0,33,0.00,,,0.00,meteohub,2013-05-05 14:32:00,
2013-05-05 07:37:00,61.2,31.1,-100.00,SSW,193,11.0,19.0,32,0.00,,,0.00,meteohub,2013-05-05 14:37:00,
2013-05-05 07:42:00,61.5,30.6,-100.00,SSW,192,15.0,21.0,31,0.00,,,0.00,meteohub,2013-05-05 14:42:00,
2013-05-05 07:47:00,62.2,31.3,-100.00,West,261,7.0,21.0,31,0.00,,,0.00,meteohub,2013-05-05 14:47:00,
2013-05-05 07:52:00,61.9,30.9,-100.00,WNW,286,3.0,21.0,31,0.00,,,0.00,meteohub,2013-05-05 14:52:00,
2013-05-05 07:57:00,62.1,31.8,-100.00,South,189,14.0,17.0,32,0.00,,,0.00,meteohub,2013-05-05 14:57:00,
2013-05-05 08:02:00,61.9,32.5,-100.00,WSW,244,8.0,17.0,33,0.00,,,0.00,meteohub,2013-05-05 15:02:00,
2013-05-05 08:07:00,62.2,31.3,-100.00,SSW,202,7.0,17.0,31,0.00,,,0.00,meteohub,2013-05-05 15:07:00,
2013-05-05 08:12:00,62.4,31.5,-100.00,SW,217,15.0,19.0,31,0.00,,,0.00,meteohub,2013-05-05 15:12:00,
2013-05-05 08:17:00,62.8,31.6,-100.00,SSW,192,11.0,23.0,31,0.00,,,0.00,meteohub,2013-05-05 15:17:00,
2013-05-05 08:22:00,62.8,31.6,-100.00,SW,223,16.0,23.0,31,0.00,,,0.00,meteohub,2013-05-05 15:22:00,
2013-05-05 08:27:00,62.1,32.5,-100.00,SW,227,8.0,23.0,33,0.00,,,0.00,meteohub,2013-05-05 15:27:00,
2013-05-05 08:32:00,61.9,34.0,-100.00,WSW,257,13.0,22.0,35,0.00,,,0.00,meteohub,2013-05-05 15:32:00,
2013-05-05 08:37:00,61.5,34.3,-100.00,WSW,242,3.0,22.0,36,0.00,,,0.00,meteohub,2013-05-05 15:37:00,
2013-05-05 08:42:00,61.9,33.3,-100.00,SW,234,9.0,15.0,34,0.00,,,0.00,meteohub,2013-05-05 15:42:00,
2013-05-05 08:47:00,62.4,34.3,-100.00,SW,233,9.0,18.0,35,0.00,,,0.00,meteohub,2013-05-05 15:47:00,
2013-05-05 08:52:00,62.6,33.8,-100.00,WSW,243,10.0,18.0,34,0.00,,,0.00,meteohub,2013-05-05 15:52:00,
2013-05-05 08:57:00,62.4,35.1,-100.00,SW,234,17.0,21.0,36,0.00,,,0.00,meteohub,2013-05-05 15:57:00,
2013-05-05 09:02:00,62.6,36.0,-100.00,WSW,237,10.0,21.0,37,0.00,,,0.00,meteohub,2013-05-05 16:02:00,
2013-05-05 09:07:00,62.2,36.3,-100.00,SW,232,7.0,21.0,38,0.00,,,0.00,meteohub,2013-05-05 16:07:00,
2013-05-05 09:12:00,63.3,36.7,-100.00,SW,220,11.0,21.0,37,0.00,,,0.00,meteohub,2013-05-05 16:12:00,
2013-05-05 09:17:00,63.9,36.3,-100.00,SW,217,11.0,21.0,36,0.00,,,0.00,meteohub,2013-05-05 16:17:00,
2013-05-05 09:22:00,64.2,36.7,-100.00,SSW,200,16.0,25.0,36,0.00,,,0.00,meteohub,2013-05-05 16:22:00,
2013-05-05 09:27:00,64.9,36.7,-100.00,SSW,213,11.0,25.0,35,0.00,,,0.00,meteohub,2013-05-05 16:27:00,
2013-05-05 09:32:00,64.6,37.0,-100.00,SW,214,18.0,25.0,36,0.00,,,0.00,meteohub,2013-05-05 16:32:00,
2013-05-05 09:37:00,64.6,37.8,-100.00,SW,215,16.0,25.0,37,0.00,,,0.00,meteohub,2013-05-05 16:37:00,
2013-05-05 09:42:00,64.9,38.1,-100.00,SSW,201,18.0,25.0,37,0.00,,,0.00,meteohub,2013-05-05 16:42:00,
2013-05-05 09:47:00,64.8,37.9,-100.00,South,186,13.0,23.0,37,0.00,,,0.00,meteohub,2013-05-05 16:47:00,
2013-05-05 09:52:00,64.4,38.3,-100.00,SSW,192,21.0,23.0,38,0.00,,,0.00,meteohub,2013-05-05 16:52:00,
2013-05-05 09:57:00,64.6,38.5,-100.00,SSW,199,8.0,23.0,38,0.00,,,0.00,meteohub,2013-05-05 16:57:00,
2013-05-05 10:02:00,64.8,38.5,-100.00,SW,229,6.0,23.0,38,0.00,,,0.00,meteohub,2013-05-05 17:02:00,
2013-05-05 10:07:00,64.6,38.5,-100.00,SW,229,9.0,23.0,38,0.00,,,0.00,meteohub,2013-05-05 17:07:00,
2013-05-05 10:12:00,64.8,38.5,-100.00,SSW,192,13.0,23.0,38,0.00,,,0.00,meteohub,2013-05-05 17:12:00,
2013-05-05 10:17:00,64.8,38.5,-100.00,SW,216,18.0,23.0,38,0.00,,,0.00,meteohub,2013-05-05 17:17:00,
2013-05-05 10:22:00,64.8,39.2,-100.00,SW,234,13.0,23.0,39,0.00,,,0.00,meteohub,2013-05-05 17:22:00,
2013-05-05 10:27:00,65.1,38.8,-100.00,WSW,244,5.0,23.0,38,0.00,,,0.00,meteohub,2013-05-05 17:27:00,
2013-05-05 10:32:00,65.1,38.8,-100.00,SW,228,14.0,21.0,38,0.00,,,0.00,meteohub,2013-05-05 17:32:00,
2013-05-05 10:37:00,64.6,39.0,-100.00,SSW,213,21.0,22.0,39,0.00,,,0.00,meteohub,2013-05-05 17:37:00,
2013-05-05 10:42:00,64.4,38.8,-100.00,SSW,201,11.0,26.0,39,0.00,,,0.00,meteohub,2013-05-05 17:42:00,
2013-05-05 10:47:00,64.6,39.7,-100.00,SSW,211,8.0,26.0,40,0.00,,,0.00,meteohub,2013-05-05 17:47:00,
2013-05-05 10:52:00,64.8,39.9,-100.00,SW,231,19.0,26.0,40,0.00,,,0.00,meteohub,2013-05-05 17:52:00,
2013-05-05 10:57:00,64.4,38.8,-100.00,SW,233,19.0,26.0,39,0.00,,,0.00,meteohub,2013-05-05 17:57:00,
2013-05-05 11:02:00,64.6,38.5,-100.00,SW,221,13.0,25.0,38,0.00,,,0.00,meteohub,2013-05-05 18:02:00,
2013-05-05 11:07:00,64.8,39.9,-100.00,SW,225,5.0,25.0,40,0.00,,,0.00,meteohub,2013-05-05 18:07:00,
2013-05-05 11:12:00,64.9,40.6,-100.00,South,169,25.0,27.0,41,0.00,,,0.00,meteohub,2013-05-05 18:12:00,
2013-05-05 11:17:00,65.1,40.3,-100.00,SSW,192,20.0,27.0,40,0.00,,,0.00,meteohub,2013-05-05 18:17:00,
2013-05-05 11:22:00,65.7,40.1,-100.00,SSW,204,10.0,27.0,39,0.00,,,0.00,meteohub,2013-05-05 18:22:00,
2013-05-05 11:27:00,66.4,39.4,-100.00,SSW,208,10.0,30.0,37,0.00,,,0.00,meteohub,2013-05-05 18:27:00,
2013-05-05 11:32:00,66.7,39.0,-100.00,SSW,193,13.0,30.0,36,0.00,,,0.00,meteohub,2013-05-05 18:32:00,
2013-05-05 11:37:00,66.7,39.0,-100.00,SSW,213,18.0,30.0,36,0.00,,,0.00,meteohub,2013-05-05 18:37:00,
2013-05-05 11:42:00,65.8,38.8,-100.00,SW,216,13.0,30.0,37,0.00,,,0.00,meteohub,2013-05-05 18:42:00,
2013-05-05 11:47:00,65.7,39.4,-100.00,South,177,22.0,28.0,38,0.00,,,0.00,meteohub,2013-05-05 18:47:00,
2013-05-05 11:52:00,65.7,39.4,-100.00,SSW,192,12.0,28.0,38,0.00,,,0.00,meteohub,2013-05-05 18:52:00,
2013-05-05 11:57:00,65.5,39.2,-100.00,SW,223,16.0,28.0,38,0.00,,,0.00,meteohub,2013-05-05 18:57:00,
2013-05-05 12:02:00,65.1,39.6,-100.00,SSW,205,8.0,30.0,39,0.00,,,0.00,meteohub,2013-05-05 19:02:00,
2013-05-05 12:07:00,64.9,40.1,-100.00,SW,217,12.0,30.0,40,0.00,,,0.00,meteohub,2013-05-05 19:07:00,
2013-05-05 12:12:00,65.7,39.4,-100.00,SSW,208,13.0,30.0,38,0.00,,,0.00,meteohub,2013-05-05 19:12:00,
2013-05-05 12:17:00,66.0,39.0,-100.00,SSW,211,7.0,22.0,37,0.00,,,0.00,meteohub,2013-05-05 19:17:00,
2013-05-05 12:22:00,66.7,39.6,-100.00,SSW,207,10.0,26.0,37,0.00,,,0.00,meteohub,2013-05-05 19:22:00,
2013-05-05 12:27:00,66.7,39.6,-100.00,SSW,207,10.0,26.0,37,0.00,,,0.00,meteohub,2013-05-05 19:27:00,
2013-05-05 12:32:00,67.6,39.7,-100.00,South,188,9.0,23.0,36,0.00,,,0.00,meteohub,2013-05-05 19:32:00,
2013-05-05 12:37:00,68.7,39.2,-100.00,SSW,200,7.0,23.0,34,0.00,,,0.00,meteohub,2013-05-05 19:37:00,
2013-05-05 12:42:00,68.5,38.3,-100.00,South,187,12.0,18.0,33,0.00,,,0.00,meteohub,2013-05-05 19:42:00,
2013-05-05 12:47:00,67.6,38.3,-100.00,South,188,27.0,32.0,34,0.00,,,0.00,meteohub,2013-05-05 19:47:00,
2013-05-05 12:52:00,67.6,38.3,-100.00,South,171,20.0,32.0,34,0.00,,,0.00,meteohub,2013-05-05 19:52:00,
2013-05-05 12:57:00,66.9,38.3,-100.00,SW,223,11.0,32.0,35,0.00,,,0.00,meteohub,2013-05-05 19:57:00,
2013-05-05 13:02:00,66.7,39.0,-100.00,SSW,213,16.0,32.0,36,0.00,,,0.00,meteohub,2013-05-05 20:02:00,
2013-05-05 13:07:00,66.2,39.2,-100.00,SSW,213,17.0,32.0,37,0.00,,,0.00,meteohub,2013-05-05 20:07:00,
2013-05-05 13:12:00,65.8,38.8,-100.00,SW,224,31.0,32.0,37,0.00,,,0.00,meteohub,2013-05-05 20:12:00,
2013-05-05 13:17:00,64.9,38.7,-100.00,SW,229,22.0,36.0,38,0.00,,,0.00,meteohub,2013-05-05 20:17:00,
2013-05-05 13:22:00,64.6,39.0,-100.00,WSW,246,15.0,36.0,39,0.00,,,0.00,meteohub,2013-05-05 20:22:00,
2013-05-05 13:27:00,64.2,39.4,-100.00,SSW,196,12.0,36.0,40,0.00,,,0.00,meteohub,2013-05-05 20:27:00,
2013-05-05 13:32:00,63.9,39.7,-100.00,WSW,237,24.0,34.0,41,0.00,,,0.00,meteohub,2013-05-05 20:32:00,
2013-05-05 13:37:00,64.0,39.9,-100.00,SSW,209,21.0,36.0,41,0.00,,,0.00,meteohub,2013-05-05 20:37:00,
2013-05-05 13:42:00,63.7,39.6,-100.00,SW,214,19.0,36.0,41,0.00,,,0.00,meteohub,2013-05-05 20:42:00,
2013-05-05 13:47:00,63.9,39.7,-100.00,SW,230,22.0,36.0,41,0.00,,,0.00,meteohub,2013-05-05 20:47:00,
2013-05-05 13:52:00,64.2,40.1,-100.00,SSW,201,20.0,33.0,41,0.00,,,0.00,meteohub,2013-05-05 20:52:00,
2013-05-05 13:57:00,64.6,40.3,-100.00,WSW,237,22.0,29.0,41,0.00,,,0.00,meteohub,2013-05-05 20:57:00,
2013-05-05 14:02:00,66.6,40.8,-100.00,SW,223,18.0,31.0,39,0.00,,,0.00,meteohub,2013-05-05 21:02:00,
2013-05-05 14:07:00,66.9,40.5,-100.00,WSW,239,14.0,31.0,38,0.00,,,0.00,meteohub,2013-05-05 21:07:00,
2013-05-05 14:12:00,66.6,40.1,-100.00,SW,224,16.0,31.0,38,0.00,,,0.00,meteohub,2013-05-05 21:12:00,
2013-05-05 14:17:00,66.4,39.9,-100.00,SSW,194,14.0,31.0,38,0.00,,,0.00,meteohub,2013-05-05 21:17:00,
2013-05-05 14:22:00,66.2,39.9,-100.00,SW,224,17.0,32.0,38,0.00,,,0.00,meteohub,2013-05-05 21:22:00,
2013-05-05 14:27:00,66.2,39.9,-100.00,SSW,209,22.0,32.0,38,0.00,,,0.00,meteohub,2013-05-05 21:27:00,
2013-05-05 14:32:00,65.7,40.1,-100.00,SSW,198,21.0,33.0,39,0.00,,,0.00,meteohub,2013-05-05 21:32:00,
2013-05-05 14:37:00,65.1,40.3,-100.00,SW,219,13.0,34.0,40,0.00,,,0.00,meteohub,2013-05-05 21:37:00,
2013-05-05 14:42:00,64.9,40.6,-100.00,SW,223,16.0,34.0,41,0.00,,,0.00,meteohub,2013-05-05 21:42:00,
2013-05-05 14:47:00,64.8,40.5,-100.00,SSW,207,5.0,34.0,41,0.00,,,0.00,meteohub,2013-05-05 21:47:00,
2013-05-05 14:52:00,64.9,40.6,-100.00,SSW,210,20.0,32.0,41,0.00,,,0.00,meteohub,2013-05-05 21:52:00,
2013-05-05 14:57:00,64.8,41.2,-100.00,SSW,197,10.0,32.0,42,0.00,,,0.00,meteohub,2013-05-05 21:57:00,
2013-05-05 15:02:00,64.9,40.6,-100.00,SSW,192,12.0,34.0,41,0.00,,,0.00,meteohub,2013-05-05 22:02:00,
2013-05-05 15:07:00,65.5,40.5,-100.00,South,190,20.0,34.0,40,0.00,,,0.00,meteohub,2013-05-05 22:07:00,
2013-05-05 15:12:00,65.1,40.8,-100.00,SSW,213,14.0,32.0,41,0.00,,,0.00,meteohub,2013-05-05 22:12:00,
2013-05-05 15:17:00,65.5,41.2,-100.00,SSW,204,11.0,32.0,41,0.00,,,0.00,meteohub,2013-05-05 22:17:00,
2013-05-05 15:22:00,65.3,41.0,-100.00,SW,234,17.0,33.0,41,0.00,,,0.00,meteohub,2013-05-05 22:22:00,
2013-05-05 15:27:00,65.7,41.4,-100.00,SW,230,11.0,33.0,41,0.00,,,0.00,meteohub,2013-05-05 22:27:00,
2013-05-05 15:32:00,65.8,40.8,-100.00,SSW,209,13.0,33.0,40,0.00,,,0.00,meteohub,2013-05-05 22:32:00,
2013-05-05 15:37:00,66.0,40.3,-100.00,SW,223,11.0,27.0,39,0.00,,,0.00,meteohub,2013-05-05 22:37:00,
2013-05-05 15:42:00,66.0,41.0,-100.00,SSW,211,17.0,26.0,40,0.00,,,0.00,meteohub,2013-05-05 22:42:00,
2013-05-05 15:47:00,65.8,40.8,-100.00,SW,220,12.0,24.0,40,0.00,,,0.00,meteohub,2013-05-05 22:47:00,
2013-05-05 15:52:00,65.5,41.2,-100.00,South,188,18.0,24.0,41,0.00,,,0.00,meteohub,2013-05-05 22:52:00,
2013-05-05 15:57:00,64.9,40.6,-100.00,SSW,198,9.0,24.0,41,0.00,,,0.00,meteohub,2013-05-05 22:57:00,
2013-05-05 16:02:00,65.1,40.8,-100.00,SSW,211,21.0,25.0,41,0.00,,,0.00,meteohub,2013-05-05 23:02:00,
2013-05-05 16:07:00,65.1,40.3,-100.00,SW,217,5.0,26.0,40,0.00,,,0.00,meteohub,2013-05-05 23:07:00,
2013-05-05 16:12:00,65.1,40.8,-100.00,SSW,209,18.0,26.0,41,0.00,,,0.00,meteohub,2013-05-05 23:12:00,
2013-05-05 16:17:00,65.5,41.2,-100.00,SSW,193,7.0,26.0,41,0.00,,,0.00,meteohub,2013-05-05 23:17:00,
2013-05-05 16:22:00,65.7,40.6,-100.00,SW,217,11.0,22.0,40,0.00,,,0.00,meteohub,2013-05-05 23:22:00,
2013-05-05 16:27:00,65.5,40.5,-100.00,SSW,204,8.0,22.0,40,0.00,,,0.00,meteohub,2013-05-05 23:27:00,
2013-05-05 16:32:00,65.1,40.8,-100.00,SW,229,15.0,21.0,41,0.00,,,0.00,meteohub,2013-05-05 23:32:00,
2013-05-05 16:37:00,64.9,41.4,-100.00,SW,220,10.0,21.0,42,0.00,,,0.00,meteohub,2013-05-05 23:37:00,
2013-05-05 16:42:00,64.9,40.6,-100.00,SW,225,18.0,21.0,41,0.00,,,0.00,meteohub,2013-05-05 23:42:00,
2013-05-05 16:47:00,64.2,40.6,-100.00,SSW,211,16.0,21.0,42,0.00,,,0.00,meteohub,2013-05-05 23:47:00,
2013-05-05 16:52:00,64.8,40.5,-100.00,SW,232,19.0,21.0,41,0.00,,,0.00,meteohub,2013-05-05 23:52:00,
2013-05-05 16:57:00,64.4,40.1,-100.00,SW,217,12.0,24.0,41,0.00,,,0.00,meteohub,2013-05-05 23:57:00,
2013-05-05 17:02:00,64.9,40.6,-100.00,SSW,196,16.0,25.0,41,0.00,,,0.00,meteohub,2013-05-06 00:02:00,
2013-05-05 17:07:00,65.3,40.3,-100.00,SSW,192,10.0,25.0,40,0.00,,,0.00,meteohub,2013-05-06 00:07:00,
2013-05-05 17:12:00,65.8,40.8,-100.00,South,176,3.0,24.0,40,0.00,,,0.00,meteohub,2013-05-06 00:12:00,
2013-05-05 17:17:00,66.4,40.6,-100.00,SSW,208,0.0,24.0,39,0.00,,,0.00,meteohub,2013-05-06 00:17:00,
2013-05-05 17:22:00,65.7,40.1,-100.00,SSW,213,7.0,21.0,39,0.00,,,0.00,meteohub,2013-05-06 00:22:00,
2013-05-05 17:27:00,65.5,39.9,-100.00,SSW,207,8.0,21.0,39,0.00,,,0.00,meteohub,2013-05-06 00:27:00,
2013-05-05 17:32:00,65.7,40.1,-100.00,WSW,252,16.0,21.0,39,0.00,,,0.00,meteohub,2013-05-06 00:32:00,
2013-05-05 17:37:00,64.9,40.1,-100.00,SSW,211,6.0,21.0,40,0.00,,,0.00,meteohub,2013-05-06 00:37:00,
2013-05-05 17:42:00,64.8,39.9,-100.00,SSW,209,10.0,25.0,40,0.00,,,0.00,meteohub,2013-05-06 00:42:00,
2013-05-05 17:47:00,64.6,39.7,-100.00,SW,215,4.0,25.0,40,0.00,,,0.00,meteohub,2013-05-06 00:47:00,
2013-05-05 17:52:00,64.2,40.1,-100.00,SSW,212,4.0,22.0,41,0.00,,,0.00,meteohub,2013-05-06 00:52:00,
2013-05-05 17:57:00,64.8,40.5,-100.00,SW,236,2.0,19.0,41,0.00,,,0.00,meteohub,2013-05-06 00:57:00,
2013-05-05 18:02:00,64.6,40.3,-100.00,SW,236,10.0,17.0,41,0.00,,,0.00,meteohub,2013-05-06 01:02:00,
2013-05-05 18:07:00,64.2,40.1,-100.00,SW,221,8.0,14.0,41,0.00,,,0.00,meteohub,2013-05-06 01:07:00,
2013-05-05 18:12:00,64.0,40.5,-100.00,West,259,8.0,14.0,42,0.00,,,0.00,meteohub,2013-05-06 01:12:00,
2013-05-05 18:17:00,63.9,40.3,-100.00,WSW,254,19.0,19.0,42,0.00,,,0.00,meteohub,2013-05-06 01:17:00,
2013-05-05 18:22:00,64.0,40.5,-100.00,SW,228,9.0,20.0,42,0.00,,,0.00,meteohub,2013-05-06 01:22:00,
2013-05-05 18:27:00,64.0,39.9,-100.00,SW,229,13.0,20.0,41,0.00,,,0.00,meteohub,2013-05-06 01:27:00,
2013-05-05 18:32:00,63.7,39.6,-100.00,SSW,208,6.0,20.0,41,0.00,,,0.00,meteohub,2013-05-06 01:32:00,
2013-05-05 18:37:00,63.3,39.9,-100.00,SSW,192,16.0,18.0,42,0.00,,,0.00,meteohub,2013-05-06 01:37:00,
2013-05-05 18:42:00,63.1,40.3,-100.00,SW,231,16.0,20.0,43,0.00,,,0.00,meteohub,2013-05-06 01:42:00,
2013-05-05 18:47:00,63.1,39.7,-100.00,SW,226,12.0,21.0,42,0.00,,,0.00,meteohub,2013-05-06 01:47:00,
2013-05-05 18:52:00,63.0,39.6,-100.00,SSW,205,13.0,21.0,42,0.00,,,0.00,meteohub,2013-05-06 01:52:00,
2013-05-05 18:57:00,62.8,39.9,-100.00,SW,218,5.0,22.0,43,0.00,,,0.00,meteohub,2013-05-06 01:57:00,
2013-05-05 19:02:00,62.4,39.6,-100.00,SW,231,13.0,22.0,43,0.00,,,0.00,meteohub,2013-05-06 02:02:00,
2013-05-05 19:07:00,62.4,40.3,-100.00,SSW,195,6.0,22.0,44,0.00,,,0.00,meteohub,2013-05-06 02:07:00,
2013-05-05 19:12:00,62.6,39.7,-100.00,SW,227,11.0,23.0,43,0.00,,,0.00,meteohub,2013-05-06 02:12:00,
2013-05-05 19:17:00,62.2,40.1,-100.00,SW,221,10.0,23.0,44,0.00,,,0.00,meteohub,2013-05-06 02:17:00,
2013-05-05 19:22:00,62.1,39.9,-100.00,SW,234,13.0,25.0,44,0.00,,,0.00,meteohub,2013-05-06 02:22:00,
2013-05-05 19:27:00,61.9,39.7,-100.00,WSW,237,12.0,25.0,44,0.00,,,0.00,meteohub,2013-05-06 02:27:00,
2013-05-05 19:32:00,61.9,40.3,-100.00,SSW,205,10.0,24.0,45,0.00,,,0.00,meteohub,2013-05-06 02:32:00,
2013-05-05 19:37:00,61.9,39.7,-100.00,South,188,15.0,24.0,44,0.00,,,0.00,meteohub,2013-05-06 02:37:00,
2013-05-05 19:42:00,61.3,39.7,-100.00,SW,218,18.0,23.0,45,0.00,,,0.00,meteohub,2013-05-06 02:42:00,
2013-05-05 19:47:00,61.0,40.1,-100.00,SW,234,12.0,23.0,46,0.00,,,0.00,meteohub,2013-05-06 02:47:00,
2013-05-05 19:52:00,60.4,40.1,-100.00,WSW,240,12.0,24.0,47,0.00,,,0.00,meteohub,2013-05-06 02:52:00,
2013-05-05 19:57:00,60.4,39.6,-100.00,SW,225,11.0,25.0,46,0.00,,,0.00,meteohub,2013-05-06 02:57:00,
2013-05-05 20:02:00,60.1,39.7,-100.00,SW,223,17.0,25.0,47,0.00,,,0.00,meteohub,2013-05-06 03:02:00,
2013-05-05 20:07:00,60.4,40.1,-100.00,SW,217,18.0,26.0,47,0.00,,,0.00,meteohub,2013-05-06 03:07:00,
2013-05-05 20:12:00,60.3,39.4,-100.00,SSW,203,14.0,26.0,46,0.00,,,0.00,meteohub,2013-05-06 03:12:00,
2013-05-05 20:17:00,59.7,39.9,-100.00,SW,223,6.0,26.0,48,0.00,,,0.00,meteohub,2013-05-06 03:17:00,
2013-05-05 20:22:00,59.4,39.7,-100.00,SSW,196,15.0,24.0,48,0.00,,,0.00,meteohub,2013-05-06 03:22:00,
2013-05-05 20:27:00,59.0,40.5,-100.00,SSW,198,16.0,24.0,50,0.00,,,0.00,meteohub,2013-05-06 03:27:00,
2013-05-05 20:32:00,59.2,39.6,-100.00,South,188,11.0,22.0,48,0.00,,,0.00,meteohub,2013-05-06 03:32:00,
2013-05-05 20:37:00,59.0,38.8,-100.00,SSW,206,20.0,23.0,47,0.00,,,0.00,meteohub,2013-05-06 03:37:00,
2013-05-05 20:42:00,58.8,38.7,-100.00,SSW,202,17.0,23.0,47,0.00,,,0.00,meteohub,2013-05-06 03:42:00,
2013-05-05 20:47:00,58.5,38.8,-100.00,WSW,242,7.0,21.0,48,0.00,,,0.00,meteohub,2013-05-06 03:47:00,
2013-05-05 20:52:00,58.3,39.2,-100.00,SW,219,4.0,21.0,49,0.00,,,0.00,meteohub,2013-05-06 03:52:00,
2013-05-05 20:57:00,57.9,38.8,-100.00,WSW,238,18.0,21.0,49,0.00,,,0.00,meteohub,2013-05-06 03:57:00,
2013-05-05 21:01:00,57.7,39.2,-100.00,SSW,210,2.0,20.0,50,0.00,,,0.00,meteohub,2013-05-06 04:01:00,
2013-05-05 21:02:00,57.7,39.2,-100.00,SW,229,10.0,20.0,50,0.00,,,0.00,meteohub,2013-05-06 04:02:00,
2013-05-05 21:07:00,57.9,39.4,-100.00,SW,221,13.0,20.0,50,0.00,,,0.00,meteohub,2013-05-06 04:07:00,
2013-05-05 21:12:00,57.7,39.2,-100.00,SSW,202,18.0,22.0,50,0.00,,,0.00,meteohub,2013-05-06 04:12:00,
2013-05-05 21:17:00,57.7,39.2,-100.00,SW,223,20.0,22.0,50,0.00,,,0.00,meteohub,2013-05-06 04:17:00,
2013-05-05 21:22:00,57.6,39.6,-100.00,WSW,249,20.0,25.0,51,0.00,,,0.00,meteohub,2013-05-06 04:22:00,
2013-05-05 21:27:00,57.7,39.2,-100.00,SW,227,18.0,25.0,50,0.00,,,0.00,meteohub,2013-05-06 04:27:00,
2013-05-05 21:32:00,57.4,39.4,-100.00,SW,228,15.0,25.0,51,0.00,,,0.00,meteohub,2013-05-06 04:32:00,
2013-05-05 21:37:00,57.4,39.9,-100.00,SW,232,12.0,25.0,52,0.00,,,0.00,meteohub,2013-05-06 04:37:00,
2013-05-05 21:42:00,57.2,39.7,-100.00,SW,224,11.0,22.0,52,0.00,,,0.00,meteohub,2013-05-06 04:42:00,
2013-05-05 21:47:00,57.6,40.1,-100.00,SSW,200,7.0,23.0,52,0.00,,,0.00,meteohub,2013-05-06 04:47:00,
2013-05-05 21:52:00,57.6,40.1,-100.00,SW,218,17.0,23.0,52,0.00,,,0.00,meteohub,2013-05-06 04:52:00,
2013-05-05 21:57:00,57.7,40.3,-100.00,SW,221,9.0,23.0,52,0.00,,,0.00,meteohub,2013-05-06 04:57:00,
2013-05-05 22:02:00,57.4,39.9,-100.00,SW,225,18.0,23.0,52,0.00,,,0.00,meteohub,2013-05-06 05:02:00,
2013-05-05 22:07:00,57.0,40.1,-100.00,SW,225,10.0,23.0,53,0.00,,,0.00,meteohub,2013-05-06 05:07:00,
2013-05-05 22:12:00,57.0,40.1,-100.00,SSW,211,14.0,23.0,53,0.00,,,0.00,meteohub,2013-05-06 05:12:00,
2013-05-05 22:17:00,57.6,41.0,-100.00,SW,219,18.0,23.0,54,0.00,,,0.00,meteohub,2013-05-06 05:17:00,
2013-05-05 22:22:00,57.6,40.6,-100.00,SSW,192,13.0,22.0,53,0.00,,,0.00,meteohub,2013-05-06 05:22:00,
2013-05-05 22:27:00,57.6,41.0,-100.00,South,190,16.0,22.0,54,0.00,,,0.00,meteohub,2013-05-06 05:27:00,
2013-05-05 22:32:00,57.2,40.6,-100.00,SSW,201,11.0,22.0,54,0.00,,,0.00,meteohub,2013-05-06 05:32:00,
2013-05-05 22:37:00,57.0,41.0,-100.00,SSW,213,17.0,21.0,55,0.00,,,0.00,meteohub,2013-05-06 05:37:00,
2013-05-05 22:42:00,56.8,40.8,-100.00,SSW,213,7.0,20.0,55,0.00,,,0.00,meteohub,2013-05-06 05:42:00,
2013-05-05 22:47:00,56.8,40.8,-100.00,SW,217,15.0,22.0,55,0.00,,,0.00,meteohub,2013-05-06 05:47:00,
2013-05-05 22:52:00,56.8,40.8,-100.00,SW,216,9.0,22.0,55,0.00,,,0.00,meteohub,2013-05-06 05:52:00,
2013-05-05 22:57:00,56.5,41.0,-100.00,SW,226,14.0,21.0,56,0.00,,,0.00,meteohub,2013-05-06 05:57:00,
2013-05-05 23:02:00,56.7,40.6,-100.00,SW,221,9.0,20.0,55,0.00,,,0.00,meteohub,2013-05-06 06:02:00,
2013-05-05 23:07:00,56.5,41.0,-100.00,SW,223,19.0,21.0,56,0.00,,,0.00,meteohub,2013-05-06 06:07:00,
2013-05-05 23:12:00,56.5,41.0,-100.00,SSW,202,12.0,21.0,56,0.00,,,0.00,meteohub,2013-05-06 06:12:00,
2013-05-05 23:17:00,56.7,40.6,-100.00,SSW,213,11.0,19.0,55,0.00,,,0.00,meteohub,2013-05-06 06:17:00,
2013-05-05 23:22:00,56.3,40.8,-100.00,SW,227,7.0,19.0,56,0.00,,,0.00,meteohub,2013-05-06 06:22:00,
2013-05-05 23:27:00,56.1,40.6,-100.00,SSW,201,5.0,16.0,56,0.00,,,0.00,meteohub,2013-05-06 06:27:00,
2013-05-05 23:32:00,56.1,40.6,-100.00,SSW,207,15.0,16.0,56,0.00,,,0.00,meteohub,2013-05-06 06:32:00,
2013-05-05 23:37:00,56.1,40.6,-100.00,SSW,211,13.0,17.0,56,0.00,,,0.00,meteohub,2013-05-06 06:37:00,
2013-05-05 23:42:00,56.1,40.6,-100.00,SW,219,14.0,18.0,56,0.00,,,0.00,meteohub,2013-05-06 06:42:00,
2013-05-05 23:47:00,55.8,40.8,-100.00,SSW,199,10.0,18.0,57,0.00,,,0.00,meteohub,2013-05-06 06:47:00,
2013-05-05 23:52:00,55.6,40.6,-100.00,SW,234,11.0,18.0,57,0.00,,,0.00,meteohub,2013-05-06 06:52:00,
2013-05-05 23:57:00,55.8,40.3,-100.00,SW,236,14.0,17.0,56,0.00,,,0.00,meteohub,2013-05-06 06:57:00,